Weather History for Alamosa, CO

Change the Weather History Date:

Saturday, September 7, 2013

  Actual Average Record
Temperature  
Mean Temperature 64 °F 58 °F  
Max Temperature 84 °F 76 °F 86 °F (1959)
Min Temperature 44 °F 41 °F 28 °F (1970)
Degree Days  
Heating Degree Days 1 7  
Month to date heating degree days 1 42  
Since 1 July heating degree days 76 171  
Cooling Degree Days 0 0  
Month to date cooling degree days 11 0  
Year to date cooling degree days 110 51  
Growing Degree Days 14 (Base 50)    
Moisture  
Dew Point 42 °F    
Average Humidity 48    
Maximum Humidity 76    
Minimum Humidity 20    
Precipitation  
Precipitation 0.02 in 0.04 in 0.63 in (1995)
Month to date precipitation 0.04 0.26  
Year to date precipitation 4.92 5.21  
Snow  
Snow 0.00 in 0.00 in 0.00 in (2002)
Month to date snowfall 0.0 0.0  
Since 1 July snowfall 0.0 0.0  
Since 1 September snowfall 0.0 0.0  
Snow Depth 0.00 in    
Sea Level Pressure  
Sea Level Pressure 30.06 in    
Wind  
Wind Speed 6 mph (SSE)    
Max Wind Speed 29 mph    
Max Gust Speed 37 mph    
Visibility 10 miles    
Events Rain , Thunderstorm    
T = Trace of Precipitation, MM = Missing Value Source: NWS Daily Summary

Daily Weather History Graph

Daily Weather History Graph

Search for Another Location

Airport:

Trip Planner

Search our weather history database for the weather conditions in past years. The results will help you decide how hot, cold, wet, or windy it might be!

Date:

Astronomy

Sep. 07, 2013 Rise Set
Actual Time 6:39 AM MDT 7:22 PM MDT
Civil Twilight 6:12 AM MDT 7:49 PM MDT
Nautical Twilight 5:41 AM MDT 8:20 PM MDT
Astronomical Twilight 5:09 AM MDT 8:52 PM MDT
Moon 8:52 AM MDT (9/7) 8:27 PM MDT (9/7)
Length of Visible Light 13h 36m
Length of Day
12h 43m
Waxing Crescent, 5% of the Moon is Illuminated
Sep 7
Waxing Crescent
Sep 12
First Quarter
Sep 19
Full
Sep 26
Last Quarter
Oct 4
New

Hourly Weather History & Observations

Time (MDT) Temp. Windchill Dew Point Humidity Pressure Visibility Wind Dir Wind Speed Gust Speed Precip Events Conditions
12:52 AM 53.1 °F - 39.0 °F 59% 30.06 in 10.0 mi ENE 4.6 mph - N/A   Clear
1:52 AM 53.1 °F - 39.0 °F 59% 30.06 in 10.0 mi ESE 4.6 mph - N/A   Clear
2:52 AM 51.1 °F - 37.9 °F 61% 30.06 in 10.0 mi East 3.5 mph - N/A   Clear
3:52 AM 50.0 °F - 37.9 °F 63% 30.06 in 10.0 mi East 5.8 mph - N/A   Clear
4:52 AM 51.1 °F - 39.0 °F 63% 30.05 in 10.0 mi East 9.2 mph - N/A   Clear
5:52 AM 48.9 °F - 39.0 °F 69% 30.08 in 10.0 mi ESE 6.9 mph - N/A   Clear
6:52 AM 44.1 °F 41.5 °F 37.0 °F 76% 30.13 in 10.0 mi SW 4.6 mph - N/A   Clear
7:52 AM 51.1 °F - 39.9 °F 66% 30.12 in 10.0 mi SW 3.5 mph - N/A   Clear
8:52 AM 59.0 °F - 39.9 °F 49% 30.09 in 10.0 mi Calm Calm - N/A   Clear
9:52 AM 66.9 °F - 39.9 °F 37% 30.09 in 10.0 mi Calm Calm - N/A   Clear
10:52 AM 73.0 °F - 39.9 °F 30% 30.08 in 10.0 mi Calm Calm - N/A   Clear
11:52 AM 77.0 °F - 37.9 °F 24% 30.06 in 10.0 mi Variable 5.8 mph - N/A   Clear
12:52 PM 78.1 °F - 37.0 °F 23% 30.04 in 10.0 mi Variable 6.9 mph - N/A   Unknown
1:52 PM 81.0 °F - 37.9 °F 21% 30.01 in 10.0 mi South 5.8 mph - N/A   Clear
2:52 PM 82.0 °F - 37.0 °F 20% 29.98 in 10.0 mi WSW 8.1 mph - N/A   Clear
3:52 PM 82.9 °F - 37.0 °F 19% 29.95 in 10.0 mi SSW 8.1 mph - N/A   Clear
4:52 PM 82.0 °F - 37.9 °F 21% 29.94 in 10.0 mi WSW 3.5 mph - N/A   Clear
5:52 PM 81.0 °F - 39.9 °F 23% 29.95 in 10.0 mi East 15.0 mph - N/A   Clear
6:13 PM 75.2 °F - 42.8 °F 31% 30.23 in 10.0 mi East 19.6 mph - 0.00 in Rain , Thunderstorm Light Rain
6:50 PM 64.4 °F - 48.2 °F 56% 30.28 in 5.0 mi SW 13.8 mph 36.8 mph 0.00 in Rain Light Rain
6:51 PM 64.9 °F - 48.9 °F 56% 30.07 in 5.0 mi WSW 12.7 mph 36.8 mph 0.00 in Rain Rain
6:58 PM 66.2 °F - 48.2 °F 52% 30.27 in 6.0 mi NW 13.8 mph 26.5 mph 0.02 in Rain Light Rain
7:12 PM 68.0 °F - 48.2 °F 49% 30.25 in 10.0 mi NNW 18.4 mph - 0.02 in Rain Light Rain
7:52 PM 70.0 °F - 43.0 °F 38% 30.00 in 10.0 mi North 10.4 mph 29.9 mph 0.02 in   Mostly Cloudy
8:52 PM 68.0 °F - 45.0 °F 43% 30.01 in 10.0 mi Variable 4.6 mph - N/A   Overcast
9:52 PM 64.9 °F - 50.0 °F 58% 30.00 in 10.0 mi Calm Calm - N/A   Scattered Clouds
10:52 PM 62.1 °F - 48.9 °F 62% 30.00 in 10.0 mi SE 5.8 mph - N/A   Overcast
11:52 PM 61.0 °F - 48.0 °F 62% 29.99 in 10.0 mi South 9.2 mph - N/A   Overcast